This is the latest recevied weather packets stored in our database for station/object K0NV. If no packets are shown the sender has not sent any weather packets the latest 10 day(s).
| Time | Temp. | Humidity | Pressure | Rain* | Wind** | Luminosity | Snow |
|---|---|---|---|---|---|---|---|
| 1788543047 | 35.56° C | 47% | 1017.8 hPa | 0 mm | - | 711 W/m² | - |
| 1788542743 | 34.44° C | 49% | 1017.8 hPa | 0 mm | - | 747 W/m² | - |
| 1788542442 | 35° C | 49% | 1017.7 hPa | 0 mm | - | 772 W/m² | - |
| 1788542138 | 35° C | 49% | 1017.7 hPa | 0 mm | - | 763 W/m² | - |
| 1788541833 | 35° C | 49% | 1018 hPa | 0 mm | - | 767 W/m² | - |
| 1788541529 | 35° C | 49% | 1018 hPa | 0 mm | - | 766 W/m² | - |
| 1788541225 | 35.56° C | 49% | 1018.1 hPa | 0 mm | - | 770 W/m² | - |
| 1788540923 | 35° C | 49% | 1018.1 hPa | 0 mm | - | 743 W/m² | - |
| 1788540623 | 34.44° C | 52% | 1018.1 hPa | 0 mm | - | 726 W/m² | - |
| 1788540318 | 34.44° C | 52% | 1018.1 hPa | 0 mm | - | 758 W/m² | - |
| 1788540014 | 34.44° C | 51% | 1018.2 hPa | 0 mm | - | 763 W/m² | - |
| 1788539713 | 33.89° C | 52% | 1018.1 hPa | 0 mm | - | 719 W/m² | - |
| 1788539408 | 33.89° C | 51% | 1018.1 hPa | 0 mm | - | 829 W/m² | - |
| 1788539103 | 33.89° C | 51% | 1018.1 hPa | 0 mm | - | 841 W/m² | - |
| 1788538799 | 33.89° C | 52% | 1018.4 hPa | 0 mm | - | 807 W/m² | - |
| 1788538493 | 33.89° C | 52% | 1018.2 hPa | 0 mm | - | 749 W/m² | - |
| 1788538189 | 33.89° C | 52% | 1018.3 hPa | 0 mm | - | 733 W/m² | - |
| 1788537883 | 34.44° C | 52% | 1018.2 hPa | 0 mm | - | 767 W/m² | - |
| 1788537579 | 33.89° C | 55% | 1018.2 hPa | 0 mm | - | 732 W/m² | - |
| 1788537274 | 33.89° C | 54% | 1018.4 hPa | 0 mm | - | 698 W/m² | - |
| 1788536972 | 33.33° C | 55% | 1018.4 hPa | 0 mm | - | 663 W/m² | - |
| 1788536667 | 34.44° C | 54% | 1018.5 hPa | 0 mm | - | 626 W/m² | - |
| 1788536362 | 33.89° C | 55% | 1018.3 hPa | 0 mm | - | 647 W/m² | - |
| 1788536057 | 33.33° C | 58% | 1018.4 hPa | 0 mm | - | 654 W/m² | - |
| 1788535753 | 32.78° C | 58% | 1018.5 hPa | 0 mm | - | 596 W/m² | - |
* Rain latest hour (hover to see other rain measurements)
** Current wind speed in m/s (hover to see current wind gust speed)